Weather in Ladygi

Ukraine / Khmelnitsky District     49°44′55″N   27°28′11″E
temp.,
°C
wind,
m/s
gust,
m/s
humid.,
%
clouds,
%
prec.,
mm/h
press.,
hPa
HPBL,
m
18 may, wed
wed1800:00+6nnw5136369 0.0 1017356
03:00+3nw511770 0.0 1018315
06:00+3nnw613885 0.0 1020486
09:00+6nnw81174100 0.0 10211002
12:00+6n61286100 0.7 1023961
15:00+10nnw8106686 0.8 10231329
18:00+10nnw71066100 0.1 10231302
21:00+7nnw47795 0.1 1025133
19 may, thu
thu1900:00+5nw338723 0.0 102741
03:00+4nw47935 0.0 1027114
06:00+4nw38935 0.0 1028142
09:00+11nw576984 0.0 1028502
12:00+15nw56535 0.0 10271361
15:00+17nw674883 0.0 10261576
18:00+17nw575793 0.0 10251404
21:00+11wnw347545 0.0 102555
20 may, fri
fri2000:00+9w347649 0.0 102553
03:00+8w357958 0.0 102568
06:00+8w357988 0.0 102479
09:00+15w356275 0.0 1023316
12:00+20wsw5653100 0.0 10211075
15:00+21w6849100 0.0 10191468
18:00+19wsw51065100 0.0 1018840
21:00+15wsw4779100 0.0 1016109
21 may, sat
sat2100:00+15w71686100 0.3 1015529
03:00+14w71693100 1.2 1013587
06:00+13w51195100 0.0 1012347
09:00+16wnw5891100 0.1 1011582
12:00+18w4786100 0.3 1010779
15:00+16wsw5129297 4.4 1009538
18:00+20w81483100 0.5 10071327
21:00+15wnw9169021 3.1 1009763
22 may, sun
sun2200:00+11wnw614920 0.0 1010604
03:00+9w512935 0.0 1009349
06:00+10w6158994 0.1 1007724
09:00+10w81491100 0.6 10061136
12:00+10wnw71291100 0.6 1007948
15:00+11wnw81390100 1.1 10081013
18:00+10nw61192100 0.4 1009876
21:00+9nw61195100 0.8 1010599